Weather History for Harrison, AR

Change the Weather History Date:

Thursday, November 29, 2012

  Actual Average Record
Temperature  
Mean Temperature 50 °F 43 °F  
Max Temperature 66 °F 53 °F 74 °F (1970)
Min Temperature 33 °F 33 °F 6 °F (1911)
Degree Days  
Heating Degree Days 15 22  
Month to date heating degree days 449 477  
Since 1 July heating degree days 743 742  
Cooling Degree Days 0 0  
Month to date cooling degree days 2 0  
Year to date cooling degree days 1961 1412  
Moisture  
Dew Point 30 °F    
Average Humidity 54    
Maximum Humidity 82    
Minimum Humidity 26    
Precipitation  
Precipitation 0.00 in 0.13 in 1.80 in (2006)
Month to date precipitation 1.13 4.10  
Year to date precipitation 27.45 40.81  
Snow  
Snow 0.00 in 0.10 in 2.50 in (1952)
Month to date snowfall 0.0 0.3  
Since 1 July snowfall 0.0 0.4  
Since 1 September snowfall 0.0 0.4  
Snow Depth 0.00 in    
Sea Level Pressure  
Sea Level Pressure 30.18 in    
Wind  
Wind Speed 10 mph (SE)    
Max Wind Speed 16 mph    
Max Gust Speed 20 mph    
Visibility 10 miles    
Events      
T = Trace of Precipitation, MM = Missing Value Source: NWS Daily Summary

Daily Weather History Graph

Daily Weather History Graph

Search for Another Location

Airport:

Trip Planner

Search our weather history database for the weather conditions in past years. The results will help you decide how hot, cold, wet, or windy it might be!

Date:

Astronomy

Nov. 29, 2012 Rise Set
Actual Time 7:03 AM CST 4:58 PM CST
Civil Twilight 6:35 AM CST 5:26 PM CST
Nautical Twilight 6:04 AM CST 5:58 PM CST
Astronomical Twilight 5:33 AM CST 6:29 PM CST
Moon 6:01 PM CST (11/29) 7:50 AM CST (11/29)
Length of Visible Light 10h 50m
Length of Day
9h 54m
Full, 99% of the Moon is Illuminated
Nov 29
Full
Dec 6
Last Quarter
Dec 13
New
Dec 19
First Quarter
Dec 28
Full

Hourly Weather History & Observations

Time (CST) Temp. Windchill Dew Point Humidity Pressure Visibility Wind Dir Wind Speed Gust Speed Precip Events Conditions
12:53 AM 37.9 °F 32.1 °F 30.0 °F 73% 30.26 in 10.0 mi ESE 8.1 mph - N/A   Clear
1:53 AM 34.0 °F 28.0 °F 28.9 °F 82% 30.25 in 10.0 mi SE 6.9 mph - N/A   Clear
2:53 AM 37.0 °F 32.4 °F 30.0 °F 76% 30.24 in 10.0 mi SE 5.8 mph - N/A   Clear
3:53 AM 37.0 °F 31.6 °F 30.9 °F 79% 30.24 in 10.0 mi ESE 6.9 mph - N/A   Clear
4:53 AM 37.9 °F 31.5 °F 30.9 °F 76% 30.24 in 10.0 mi SE 9.2 mph - N/A   Clear
5:53 AM 37.0 °F 31.0 °F 30.0 °F 76% 30.25 in 10.0 mi SE 8.1 mph - N/A   Clear
6:53 AM 37.9 °F 32.1 °F 30.0 °F 73% 30.24 in 10.0 mi ESE 8.1 mph - N/A   Clear
7:53 AM 41.0 °F 35.8 °F 30.9 °F 67% 30.25 in 10.0 mi SE 8.1 mph - N/A   Clear
8:53 AM 48.0 °F - 33.1 °F 56% 30.24 in 10.0 mi SSE 9.2 mph - N/A   Clear
9:53 AM 54.0 °F - 30.0 °F 40% 30.23 in 10.0 mi South 13.8 mph - N/A   Clear
10:53 AM 57.9 °F - 28.0 °F 32% 30.21 in 10.0 mi South 15.0 mph - N/A   Clear
11:53 AM 61.0 °F - 28.0 °F 29% 30.18 in 10.0 mi SSE 12.7 mph 18.4 mph N/A   Clear
12:53 PM 64.0 °F - 28.0 °F 26% 30.16 in 10.0 mi SSE 13.8 mph - N/A   Clear
1:53 PM 64.9 °F - 28.9 °F 26% 30.14 in 10.0 mi SSE 12.7 mph - N/A   Clear
2:53 PM 64.9 °F - 28.9 °F 26% 30.12 in 10.0 mi SSE 8.1 mph - N/A   Clear
3:53 PM 62.1 °F - 28.9 °F 29% 30.13 in 10.0 mi South 11.5 mph - N/A   Clear
4:53 PM 55.0 °F - 30.0 °F 38% 30.14 in 10.0 mi South 10.4 mph - N/A   Clear
5:53 PM 52.0 °F - 32.0 °F 47% 30.14 in 10.0 mi SSE 9.2 mph - N/A   Clear
6:53 PM 48.9 °F - 32.0 °F 52% 30.14 in 10.0 mi SE 11.5 mph - N/A   Clear
7:53 PM 50.0 °F - 30.0 °F 46% 30.13 in 10.0 mi SE 11.5 mph - N/A   Clear
8:53 PM 48.9 °F - 30.0 °F 48% 30.12 in 10.0 mi SE 10.4 mph - N/A   Clear
9:53 PM 50.0 °F - 28.9 °F 44% 30.12 in 10.0 mi ESE 10.4 mph 18.4 mph N/A   Clear
10:53 PM 50.0 °F - 30.0 °F 46% 30.12 in 10.0 mi SE 11.5 mph - N/A   Clear
11:53 PM 48.9 °F - 30.0 °F 48% 30.14 in 10.0 mi SE 3.5 mph - N/A   Clear